Time,TemperatureF,DewpointF,PressureIn,WindDirection,WindDirectionDegrees,WindSpeedMPH,WindSpeedGustMPH,Humidity,HourlyPrecipIn,Conditions,Clouds,dailyrainin,SolarRadiationWatts/m^2,SoftwareType,DateUTC
2013-01-05 00:00:00,29.0,25.0,29.93,WSW,254,11.0,27.0,86,0.00,,,0.01,0,weatherlink.com 1.10,2013-01-05 05:00:00,
2013-01-05 00:15:00,29.0,26.0,29.94,West,263,13.0,28.0,87,0.00,,,0.01,0,weatherlink.com 1.10,2013-01-05 05:15:00,
2013-01-05 00:30:00,29.2,26.0,29.94,WSW,257,14.0,26.0,86,0.00,,,0.01,0,weatherlink.com 1.10,2013-01-05 05:30:00,
2013-01-05 00:45:00,29.4,26.0,29.94,WSW,257,11.0,33.0,86,0.00,,,0.01,0,weatherlink.com 1.10,2013-01-05 05:45:00,
2013-01-05 01:00:00,29.4,26.0,29.95,West,265,13.0,24.0,86,0.00,,,0.01,0,weatherlink.com 1.10,2013-01-05 06:00:00,
2013-01-05 01:15:00,29.5,26.0,29.95,WNW,294,22.0,27.0,86,0.00,,,0.01,0,weatherlink.com 1.10,2013-01-05 06:15:00,
2013-01-05 01:30:00,29.5,26.0,29.95,WNW,302,9.0,30.0,86,0.00,,,0.01,0,weatherlink.com 1.10,2013-01-05 06:30:00,
2013-01-05 01:45:00,29.5,26.0,29.95,WSW,240,10.0,31.0,85,0.00,,,0.01,0,weatherlink.com 1.10,2013-01-05 06:45:00,
2013-01-05 02:00:00,29.6,25.0,29.96,WSW,252,21.0,28.0,84,0.00,,,0.01,0,weatherlink.com 1.10,2013-01-05 07:00:00,
2013-01-05 02:15:00,29.4,25.0,29.97,West,267,19.0,26.0,83,0.00,,,0.01,0,weatherlink.com 1.10,2013-01-05 07:15:00,
2013-01-05 02:30:00,29.5,25.0,29.98,WSW,251,17.0,26.0,83,0.00,,,0.01,0,weatherlink.com 1.10,2013-01-05 07:30:00,
2013-01-05 02:45:00,29.7,25.0,29.99,West,264,19.0,29.0,83,0.00,,,0.01,0,weatherlink.com 1.10,2013-01-05 07:45:00,
2013-01-05 03:00:00,29.8,25.0,30.00,West,261,13.0,26.0,83,0.00,,,0.01,0,weatherlink.com 1.10,2013-01-05 08:00:00,
2013-01-05 03:15:00,29.8,25.0,30.00,West,262,15.0,26.0,82,0.00,,,0.01,0,weatherlink.com 1.10,2013-01-05 08:15:00,
2013-01-05 03:30:00,29.7,25.0,30.01,WSW,251,13.0,23.0,83,0.00,,,0.00,0,weatherlink.com 1.10,2013-01-05 08:30:00,
2013-01-05 03:45:00,29.6,25.0,30.01,West,267,9.0,26.0,83,0.00,,,0.00,0,weatherlink.com 1.10,2013-01-05 08:45:00,
2013-01-05 04:00:00,29.6,25.0,30.02,WSW,258,10.0,27.0,83,0.00,,,0.00,0,weatherlink.com 1.10,2013-01-05 09:00:00,
2013-01-05 04:15:00,29.6,25.0,30.03,WSW,253,14.0,29.0,83,0.00,,,0.00,0,weatherlink.com 1.10,2013-01-05 09:15:00,
2013-01-05 04:31:00,29.8,25.0,30.03,West,259,14.0,27.0,82,0.00,,,0.00,0,weatherlink.com 1.10,2013-01-05 09:31:00,
2013-01-05 04:46:00,29.7,25.0,30.04,WSW,255,18.0,20.0,82,0.00,,,0.00,0,weatherlink.com 1.10,2013-01-05 09:46:00,
2013-01-05 05:01:00,30.0,25.0,30.04,WSW,246,20.0,25.0,81,0.00,,,0.00,0,weatherlink.com 1.10,2013-01-05 10:01:00,
2013-01-05 05:30:00,30.3,25.0,30.05,West,279,9.0,24.0,81,0.00,,,0.00,0,weatherlink.com 1.10,2013-01-05 10:30:00,
2013-01-05 05:45:00,30.3,25.0,30.07,WSW,254,12.0,22.0,81,0.00,,,0.00,0,weatherlink.com 1.10,2013-01-05 10:45:00,
2013-01-05 06:00:00,30.2,25.0,30.08,West,262,12.0,24.0,81,0.00,,,0.00,0,weatherlink.com 1.10,2013-01-05 11:00:00,
2013-01-05 06:15:00,30.3,25.0,30.09,West,260,12.0,19.0,81,0.00,,,0.00,0,weatherlink.com 1.10,2013-01-05 11:15:00,
2013-01-05 06:30:00,30.5,25.0,30.09,WNW,286,22.0,24.0,81,0.00,,,0.00,0,weatherlink.com 1.10,2013-01-05 11:30:00,
2013-01-05 06:45:00,30.5,25.0,30.10,WSW,249,13.0,19.0,81,0.00,,,0.00,0,weatherlink.com 1.10,2013-01-05 11:45:00,
2013-01-05 07:00:00,30.5,25.0,30.11,West,261,4.0,18.0,81,0.00,,,0.00,0,weatherlink.com 1.10,2013-01-05 12:00:00,
2013-01-05 07:15:00,30.5,25.0,30.12,West,279,7.0,15.0,81,0.00,,,0.00,0,weatherlink.com 1.10,2013-01-05 12:15:00,
2013-01-05 07:30:00,30.3,25.0,30.13,WNW,302,10.0,17.0,82,0.00,,,0.00,0,weatherlink.com 1.10,2013-01-05 12:30:00,
2013-01-05 07:45:00,30.5,26.0,30.14,West,273,17.0,18.0,82,0.00,,,0.00,0,weatherlink.com 1.10,2013-01-05 12:45:00,
2013-01-05 08:00:00,30.5,26.0,30.15,West,274,9.0,21.0,82,0.00,,,0.00,9,weatherlink.com 1.10,2013-01-05 13:00:00,
2013-01-05 08:15:00,30.4,26.0,30.16,WNW,284,9.0,17.0,83,0.00,,,0.00,14,weatherlink.com 1.10,2013-01-05 13:15:00,
2013-01-05 08:30:00,30.2,26.0,30.16,West,279,6.0,19.0,83,0.00,,,0.00,16,weatherlink.com 1.10,2013-01-05 13:30:00,
2013-01-05 08:45:00,30.1,26.0,30.17,West,262,3.0,15.0,84,0.00,,,0.00,26,weatherlink.com 1.10,2013-01-05 13:45:00,
2013-01-05 09:00:00,30.0,26.0,30.18,WNW,293,2.0,14.0,84,0.00,,,0.00,23,weatherlink.com 1.10,2013-01-05 14:00:00,
2013-01-05 09:16:00,29.9,25.0,30.20,West,267,3.0,13.0,83,0.00,,,0.00,40,weatherlink.com 1.10,2013-01-05 14:16:00,
2013-01-05 09:31:00,29.8,25.0,30.20,WNW,294,6.0,12.0,81,0.00,,,0.00,76,weatherlink.com 1.10,2013-01-05 14:31:00,
2013-01-05 09:46:00,29.8,23.0,30.22,WNW,292,7.0,14.0,75,0.00,,,0.00,100,weatherlink.com 1.10,2013-01-05 14:46:00,
2013-01-05 10:01:00,29.9,22.0,30.24,NNW,332,3.0,11.0,72,0.00,,,0.00,125,weatherlink.com 1.10,2013-01-05 15:01:00,
2013-01-05 10:16:00,29.9,22.0,30.24,WNW,296,6.0,14.0,71,0.00,,,0.00,162,weatherlink.com 1.10,2013-01-05 15:16:00,
2013-01-05 10:31:00,30.0,22.0,30.25,NW,323,3.0,15.0,71,0.00,,,0.00,227,weatherlink.com 1.10,2013-01-05 15:31:00,
2013-01-05 10:46:00,30.2,22.0,30.25,WNW,289,3.0,12.0,70,0.00,,,0.00,230,weatherlink.com 1.10,2013-01-05 15:46:00,
2013-01-05 11:01:00,30.0,21.0,30.25,NW,320,5.0,13.0,70,0.00,,,0.00,234,weatherlink.com 1.10,2013-01-05 16:01:00,
2013-01-05 11:16:00,30.4,22.0,30.26,WSW,249,5.0,7.0,70,0.00,,,0.00,248,weatherlink.com 1.10,2013-01-05 16:16:00,
2013-01-05 11:31:00,30.5,22.0,30.26,WNW,295,2.0,8.0,70,0.00,,,0.00,244,weatherlink.com 1.10,2013-01-05 16:31:00,
2013-01-05 11:48:00,30.8,22.0,30.25,North,11,1.0,8.0,71,0.00,,,0.00,313,weatherlink.com 1.10,2013-01-05 16:48:00,
2013-01-05 12:01:00,30.9,22.0,30.25,WSW,256,5.0,13.0,69,0.00,,,0.00,248,weatherlink.com 1.10,2013-01-05 17:01:00,
2013-01-05 12:16:00,30.8,22.0,30.24,West,281,4.0,13.0,69,0.00,,,0.00,237,weatherlink.com 1.10,2013-01-05 17:16:00,
2013-01-05 12:31:00,30.7,21.0,30.23,West,259,3.0,14.0,68,0.00,,,0.00,269,weatherlink.com 1.10,2013-01-05 17:31:00,
2013-01-05 12:46:00,31.0,22.0,30.23,West,263,4.0,8.0,69,0.00,,,0.00,262,weatherlink.com 1.10,2013-01-05 17:46:00,
2013-01-05 13:01:00,30.8,21.0,30.23,WNW,293,6.0,11.0,68,0.00,,,0.00,237,weatherlink.com 1.10,2013-01-05 18:01:00,
2013-01-05 13:16:00,30.8,22.0,30.22,West,259,0.0,10.0,69,0.00,,,0.00,279,weatherlink.com 1.10,2013-01-05 18:16:00,
2013-01-05 13:31:00,31.1,22.0,30.21,WNW,301,5.0,6.0,69,0.00,,,0.00,234,weatherlink.com 1.10,2013-01-05 18:31:00,
2013-01-05 13:46:00,30.8,21.0,30.22,WNW,295,3.0,11.0,68,0.00,,,0.00,200,weatherlink.com 1.10,2013-01-05 18:46:00,
2013-01-05 14:01:00,30.7,22.0,30.21,WSW,240,3.0,11.0,69,0.00,,,0.00,158,weatherlink.com 1.10,2013-01-05 19:01:00,
2013-01-05 14:16:00,30.9,22.0,30.21,West,263,0.0,8.0,69,0.00,,,0.00,181,weatherlink.com 1.10,2013-01-05 19:16:00,
2013-01-05 14:31:00,30.6,22.0,30.21,WSW,252,3.0,9.0,69,0.00,,,0.00,148,weatherlink.com 1.10,2013-01-05 19:31:00,
2013-01-05 14:46:00,30.6,22.0,30.22,WSW,253,2.0,9.0,69,0.00,,,0.00,188,weatherlink.com 1.10,2013-01-05 19:46:00,
2013-01-05 15:01:00,30.4,22.0,30.22,West,259,4.0,8.0,70,0.00,,,0.00,142,weatherlink.com 1.10,2013-01-05 20:01:00,
2013-01-05 15:16:00,30.4,22.0,30.22,NW,310,3.0,8.0,70,0.00,,,0.00,104,weatherlink.com 1.10,2013-01-05 20:16:00,
2013-01-05 15:31:00,30.3,22.0,30.22,West,269,2.0,5.0,71,0.00,,,0.00,74,weatherlink.com 1.10,2013-01-05 20:31:00,
2013-01-05 15:46:00,29.8,22.0,30.21,WSW,257,2.0,5.0,72,0.00,,,0.00,60,weatherlink.com 1.10,2013-01-05 20:46:00,
2013-01-05 16:01:00,29.2,22.0,30.22,West,261,5.0,6.0,74,0.00,,,0.00,21,weatherlink.com 1.10,2013-01-05 21:01:00,
2013-01-05 16:16:00,28.8,22.0,30.22,WSW,257,0.0,4.0,76,0.00,,,0.00,23,weatherlink.com 1.10,2013-01-05 21:16:00,
2013-01-05 16:31:00,28.7,22.0,30.21,WSW,253,0.0,3.0,75,0.00,,,0.00,5,weatherlink.com 1.10,2013-01-05 21:31:00,
2013-01-05 16:46:00,28.7,22.0,30.22,WSW,252,1.0,3.0,76,0.00,,,0.00,0,weatherlink.com 1.10,2013-01-05 21:46:00,
2013-01-05 17:01:00,28.5,22.0,30.22,WSW,252,0.0,1.0,76,0.00,,,0.00,0,weatherlink.com 1.10,2013-01-05 22:01:00,
2013-01-05 17:16:00,28.4,22.0,30.22,WSW,252,0.0,0.0,77,0.00,,,0.00,0,weatherlink.com 1.10,2013-01-05 22:16:00,
2013-01-05 17:31:00,28.4,22.0,30.22,WSW,252,0.0,0.0,78,0.00,,,0.00,0,weatherlink.com 1.10,2013-01-05 22:31:00,
2013-01-05 17:46:00,28.5,22.0,30.21,WSW,252,0.0,0.0,77,0.00,,,0.00,0,weatherlink.com 1.10,2013-01-05 22:46:00,
2013-01-05 18:01:00,28.5,22.0,30.20,WSW,252,1.0,2.0,77,0.00,,,0.00,0,weatherlink.com 1.10,2013-01-05 23:01:00,
2013-01-05 18:16:00,28.5,22.0,30.20,WSW,244,1.0,3.0,77,0.00,,,0.00,0,weatherlink.com 1.10,2013-01-05 23:16:00,
2013-01-05 18:31:00,28.6,22.0,30.19,SW,221,0.0,2.0,77,0.00,,,0.00,0,weatherlink.com 1.10,2013-01-05 23:31:00,
2013-01-05 18:46:00,28.8,22.0,30.20,WSW,252,4.0,4.0,77,0.00,,,0.00,0,weatherlink.com 1.10,2013-01-05 23:46:00,
2013-01-05 19:01:00,28.6,23.0,30.20,SW,221,1.0,7.0,79,0.00,,,0.00,0,weatherlink.com 1.10,2013-01-06 00:01:00,
2013-01-05 19:18:00,28.8,23.0,30.20,SW,232,3.0,5.0,79,0.00,,,0.00,0,weatherlink.com 1.10,2013-01-06 00:18:00,
2013-01-05 19:31:00,28.9,23.0,30.19,SW,232,0.0,4.0,78,0.00,,,0.00,0,weatherlink.com 1.10,2013-01-06 00:31:00,
2013-01-05 19:46:00,29.0,23.0,30.18,SW,224,2.0,2.0,77,0.00,,,0.00,0,weatherlink.com 1.10,2013-01-06 00:46:00,
2013-01-05 20:01:00,28.9,23.0,30.18,SW,227,3.0,5.0,78,0.00,,,0.00,0,weatherlink.com 1.10,2013-01-06 01:01:00,
2013-01-05 20:16:00,28.8,23.0,30.18,SSW,200,0.0,5.0,78,0.00,,,0.00,0,weatherlink.com 1.10,2013-01-06 01:16:00,
2013-01-05 20:31:00,28.8,22.0,30.17,South,184,0.0,3.0,77,0.00,,,0.00,0,weatherlink.com 1.10,2013-01-06 01:31:00,
2013-01-05 20:46:00,28.8,22.0,30.17,South,171,2.0,4.0,77,0.00,,,0.00,0,weatherlink.com 1.10,2013-01-06 01:46:00,
2013-01-05 21:01:00,28.5,22.0,30.15,SSE,159,0.0,4.0,78,0.00,,,0.00,0,weatherlink.com 1.10,2013-01-06 02:01:00,
2013-01-05 21:16:00,28.4,22.0,30.15,SW,217,2.0,4.0,78,0.00,,,0.00,0,weatherlink.com 1.10,2013-01-06 02:16:00,
2013-01-05 21:31:00,28.3,22.0,30.15,SSE,161,1.0,4.0,78,0.00,,,0.00,0,weatherlink.com 1.10,2013-01-06 02:31:00,
2013-01-05 21:46:00,28.1,22.0,30.15,South,175,0.0,3.0,78,0.00,,,0.00,0,weatherlink.com 1.10,2013-01-06 02:46:00,
2013-01-05 22:01:00,28.2,22.0,30.15,South,179,1.0,5.0,77,0.00,,,0.00,0,weatherlink.com 1.10,2013-01-06 03:01:00,
2013-01-05 22:16:00,28.0,22.0,30.14,South,180,0.0,5.0,77,0.00,,,0.00,0,weatherlink.com 1.10,2013-01-06 03:16:00,
2013-01-05 22:31:00,27.9,22.0,30.14,South,180,0.0,2.0,78,0.00,,,0.00,0,weatherlink.com 1.10,2013-01-06 03:31:00,
2013-01-05 22:46:00,27.9,22.0,30.15,South,180,0.0,0.0,78,0.00,,,0.00,0,weatherlink.com 1.10,2013-01-06 03:46:00,
2013-01-05 23:01:00,27.9,22.0,30.14,South,180,1.0,2.0,77,0.00,,,0.00,0,weatherlink.com 1.10,2013-01-06 04:01:00,
2013-01-05 23:16:00,27.9,22.0,30.13,SSE,161,2.0,3.0,78,0.00,,,0.00,0,weatherlink.com 1.10,2013-01-06 04:16:00,
2013-01-05 23:32:00,27.9,22.0,30.12,SSE,161,0.0,0.0,78,0.00,,,0.00,0,weatherlink.com 1.10,2013-01-06 04:32:00,
2013-01-05 23:46:00,27.8,22.0,30.12,SSE,161,1.0,3.0,78,0.00,,,0.00,0,weatherlink.com 1.10,2013-01-06 04:46:00,